Regional Weather Roundup
Issued by NWS

Home | Current Version | Previous Version | Text Only | Print | Product List | Glossary Off
Versions: 1 2 3 4 5 6 7 8 9 10 11 12 13 14 15 16 17 18 19 20 21 22 23 24 25 26 27 28 29 30 31 32 33 34 35 36 37 38 39 40 41 42 43 44 45 46 47 48 49 50

000
ASUS45 KSLC 281310
RWRUT

UTAH REGIONAL WEATHER ROUNDUP
NATIONAL WEATHER SERVICE SALT LAKE CITY UT
700 AM MDT FRI AUG 28 2015

UTZ001>011-023>025-281400-

NORTHERN UTAH

CITY           SKY/WX    TMP DP  RH WIND       PRES   REMARKS
BRIGHAM CITY   CLEAR     59  49  68 CALM      30.19S
HILL AFB       CLEAR     62  43  49 E17       30.21R
LOGAN          CLEAR     51  48  89 CALM      30.22R
OGDEN          CLEAR     63  43  48 S6        30.19R
PROVO AIRPORT  CLEAR    N/A N/A N/A CALM      30.23R
SALT LAKE CITY PTCLDY    66  50  56 SE7       30.18R
VERNAL         CLEAR     55  41  59 W6        30.29R
WENDOVER       PTCLDY    64  41  42 CALM      30.18R
HEBER CITY     CLEAR     45  41  87 CALM      30.32S
WEST JORDAN    CLEAR     63  46  55 S12       30.21R

$$

UTZ012>022-026-027-281400-

SOUTHERN/CENTRAL UTAH

CITY           SKY/WX    TMP DP  RH WIND       PRES   REMARKS
BLANDING       CLEAR     59  45  60 N9        30.34R
BRYCE CANYON   CLEAR     46  42  86 W6        30.42S
CEDAR CITY     CLEAR     51  46  83 SW8       30.27R
DELTA          CLEAR     60  42  52 NE5       30.21S
HANKSVILLE     CLEAR     61  52  72 CALM      30.22R
MILFORD        CLEAR     51  43  74 S6        30.23R
MOAB/CYNLANDS  CLEAR     64  51  62 S7        30.20R
PRICE          NOT AVBL
ST GEORGE      SUNNY     72  52  49 CALM      30.10R
KANAB          CLEAR     59  55  88 NE7       30.28R

$$

REGIONAL REPORTS     COLORADO/ARIZONA

CITY           SKY/WX    TMP DP  RH WIND       PRES   REMARKS
CRAIG, CO      CLEAR     47  44  90 CALM      30.36R
GRAND JUNCTION CLEAR     56  53  90 E3        30.26R
RIFLE          CLEAR     51  49  92 NE3       30.33R
MONTROSE       CLEAR     52  49  89 S6        30.33R
CORTEZ         CLEAR     52  48  86 N5        30.27R
PAGE, AZ       CLEAR     71  51  49 E3        30.16R
GRAND CANYON   CLEAR     47  43  86 CALM      30.34R
KINGMAN        CLEAR     69  56  62 SE3       30.09S
FLAGSTAFF      CLEAR     48  47  96 CALM      30.36R

$$

REGIONAL REPORTS    NEVADA/IDAHO/WYOMING

CITY           SKY/WX    TMP DP  RH WIND       PRES   REMARKS
LAS VEGAS, NV  PTCLDY    83  52  34 SW3       29.94S
ELY            PTCLDY    47  41  80 S10       30.32R
ELKO           MOCLDY    56  33  42 NE5       30.21S
POCATELLO, ID  CLEAR     54  44  69 E6        30.19S
BURLEY         CLEAR     52  45  77 CALM      30.13S
EVANSTON, WY   PTCLDY    52  37  56 S7        30.38R
ROCK SPRINGS   PTCLDY    51  42  71 CALM      30.36R
KEMMERER       CLEAR     45  36  70 NW13      30.39R

$$


USA.gov is the U.S. government's official web portal to all federal, state and local government web resources and services.